Regional Weather Roundup
Issued by NWS

Home | Current Version | Previous Version | Graphics & Text | Print | Product List | Glossary On
Versions: 1 2 3 4 5 6 7 8 9 10 11 12 13 14 15 16 17 18 19 20 21 22 23 24 25 26 27 28 29 30 31 32 33 34 35 36 37 38 39 40 41 42 43 44 45 46 47 48 49 50
000
ASUS43 KBIS 272002
RWRND

NORTH DAKOTA REGIONAL WEATHER ROUNDUP
NATIONAL WEATHER SERVICE BISMARCK ND
300 PM CDT WED MAY 27 2015

NOTE: "FAIR" INDICATES FEW OR NO CLOUDS BELOW 12,000 FEET WITH NO
SIGNIFICANT WEATHER AND/OR OBSTRUCTIONS TO VISIBILITY.


NDZ001>003-009>011-017-272100-
NORTHWEST NORTH DAKOTA

CITY           SKY/WX    TMP DP  RH WIND       PRES   REMARKS
WILLISTON      CLOUDY    79  43  27 SE8G18    29.87F
MINOT          MOSUNNY   78  50  37 NE12G18   29.93F
MINOT AFB      MOSUNNY   76  51  42 E10       29.93F
$$

NDZ018>021-031>035-040>046-272100-
SOUTHWEST NORTH DAKOTA

CITY           SKY/WX    TMP DP  RH WIND       PRES   REMARKS
BISMARCK       PTSUNNY   81  50  33 S17G23    29.94F
DICKINSON      CLOUDY    77  50  38 S16G24    29.88F
GARRISON         N/A     81  46  29 S12       29.92
HETTINGER ARPT CLOUDY    72  50  45 SE17G26   29.92F
$$

NDZ004>008-012>016-024-026-027-054-272100-
NORTHEAST NORTH DAKOTA

CITY           SKY/WX    TMP DP  RH WIND       PRES   REMARKS
GRAND FORKS    SUNNY     74  50  42 N8        29.98R
GRND FRKS AFB  SUNNY     71  49  45 N8        29.99R
DEVILS LAKE    SUNNY     73  48  40 E8        29.97F
$$

NDZ022-023-025-028>030-036>039-047>053-272100-
SOUTHEAST NORTH DAKOTA

CITY           SKY/WX    TMP DP  RH WIND       PRES   REMARKS
FARGO          SUNNY     80  54  40 N3        29.96S
JAMESTOWN      TSTM      70  44  39 N18G39    29.96S
$$




USA.gov is the U.S. government's official web portal to all federal, state and local government web resources and services.